Hourly Data Report for October 21, 2016

All times are specified in Local Standard Time (LST). Add 1 hour to adjust for Daylight Saving Time where and when it is observed.

EUREKA CLIMATE
NUNAVUT

79°59'21.000" N
85°56'02.000" W
10.00 m
2401199
71613
NEK

Download Data

Hourly Data (October 2016)
Hourly Data Report for October 21, 2016
Temp Definition
°C
Dew Point Temp Definition
°C
Rel Hum Definition
%
Wind Dir Definition
10's deg

Wind Spd Definition
km/h
Visibility Definition
km
Stn Press Definition
kPa
Hmdx Definition


Wind Chill Definition


Weather Definition


TIME
00:00 -21.3 -23.1 86 5 2   101.18   -23 LegendNANA
01:00 -21.0 -22.8 86 4 2   101.23   -23 LegendNANA
02:00 -20.8 -22.5 86 6 3   101.28   -23 LegendNANA
03:00 -20.4 -22.1 86 13 6   101.33   -25 LegendNANA
04:00 -20.5 -22.2 86 3 4   101.35   -24 LegendNANA
05:00 -20.5 -22.2 86 2 7   101.37   -26 LegendNANA
06:00 -19.4 -21.0 87 15 7   101.38   -25 LegendNANA
07:00 -19.3 -20.9 87 14 6   101.39   -24 LegendNANA
08:00 -20.3 -22.0 86 13 7   101.41   -26 LegendNANA
09:00 -19.9 -21.6 87 14 11   101.43   -28 LegendNANA
10:00 -20.7 -22.4 86 15 7   101.44   -26 LegendNANA
11:00 -20.5 -22.1 87 16 8   101.46   -27 LegendNANA
12:00 -20.5 -22.2 87 14 8   101.50   -27 LegendNANA
13:00 -20.8 -22.5 86 14 8   101.54   -27 LegendNANA
14:00 -21.8 -23.7 84 17 6   101.56   -27 LegendNANA
15:00 -23.2 -25.1 84 13 5   101.59   -28 LegendNANA
16:00 -23.2 -25.1 84 17 1   101.62   -24 LegendNANA
17:00 -23.7 -25.7 83 1 3   101.64   -27 LegendNANA
18:00 -24.4 -26.4 83 4 3   101.65   -27 LegendNANA
19:00 -24.4 -26.4 83 6 2   101.66   -26 LegendNANA
20:00 -25.1 -27.6 80 7 2   101.66   -27 LegendNANA
21:00 -25.6 -27.8 82 4 2   101.66   -28 LegendNANA
22:00 -25.3 -27.5 82 5 3   101.67   -28 LegendNANA
23:00 -24.2 -26.2 84 2 1   101.68   -25 LegendNANA

Notes on Data Quality.

Legend

  • E = Estimated
  • M = Missing
  • NA = Not Available
  • ‡ = Partner data that is not subject to review by the National Climate Archives
Date modified: